Location: Bishop�s Knoyle
(51.0728°N, 2.1714°W)
Time: 14:01:57
(UTC+00:00)

NOSS 3-4 (C) - Pass Details

Date: 25 January 2021
Orbit: 878 x 1335 km, 63.4° (Epoch: 16 February)

Event Time Altitude Azimuth Distance (km) Brightness Sun altitude
Rises 19:44:01 0° 301° (WNW) 3,635 7.4 -27.4°
Reaches altitude 10° 19:46:49 10° 312° (NW) 2,747 6.5 -27.9°
Maximum altitude 19:52:30 31° 13° (NNE) 1,768 4.7 -28.8°
Enters shadow 19:52:51 31° 19° (NNE) 1,779 4.7 -28.8°
